sat.trackr.live / text

‹ back to catalog

STARLINK-33950

NORAD 63701 · 2025-087E

PAYLOAD ACTIVE UNKNOWN

§ Identity

Operator
Country
US
Launch date
2025-04-28
Launch site
AFWTR
Launch vehicle
Mass (kg)
RCS (m²)

Purposes: comms

External: N2YO · Heavens-Above · Gunter

§ Orbital elements

Epoch: 2026-09-20T15:23:02.462208Z

Period
94.01 min
Inclination
53.1642°
Eccentricity
0.0001154
Mean motion
15.31707092 rev/d
Perigee alt
469.9 km
Apogee alt
471.5 km
Semi-major
6,848.9 km
B*
5.1599e-4
RAAN
32.8893°
Arg perigee
92.2796°
Mean anomaly
267.8337°
Rev number
7,906

§ Raw data

STARLINK-339501 63701U 25087E   26263.64100072  .00015684  00000+0  51599-3 0  99932 63701  53.1642  32.8893 0001154  92.2796 267.8337 15.31707092 79062

JSON: /api/v1/satellites/63701 · /tle

For live sub-satellite position, see the globe view (requires WebGL).

§ Visibility from observer

Set your observer location to see the next 7 days of passes ≥ 10°. The values pass through the URL so the page stays shareable.

No JS? Fill the form by hand. The geolocation button needs JavaScript.